Location: Antin
(43.3330°N, 0.2804°E)
Time: 23:26:26
(UTC+00:00)

Okean-O - Pass Details

Date: 16 October 2021
Orbit: 639 x 640 km, 98.2° (Epoch: 04 December)

Event Time Altitude Azimuth Distance (km) Brightness Sun altitude
Exits shadow 19:45:17 32° 221° (SW) 1,096 4.0 -28.1°
Maximum altitude 19:46:36 41° 261° (W) 935 3.8 -28.3°
Drops below altitude 10° 19:50:49 10° 332° (NNW) 2,041 5.7 -29.1°
Sets 19:53:08 0° 340° (NNW) 2,955 6.5 -29.5°
